When you browse on this site, cookies collect data to enhance your experience and personalize the content and advertising you see.
Visit our Privacy Policy to learn more. By continuing to use the site, you agree to this use of cookies and data.
  • In Österreich
  • Länderverzeichnis
  • Für 7 Tage
  • Wassertemperatur
  • Satellitenkarten
  • Wetterkarte
  • News
  • Widgets
  • user-avatar
    Anmelden

    Stündliche Wetter Ganja

    Heute, 10 Dezember, Montag

    Zeit Temperatur Niederschläge Wind Luftdruck Luftfeuchtigkeit
    00:00 +6°C° 0 mm 1 m/S 727 mmHg 90%
    01:00 +6°C° 0 mm 1 m/S 727 mmHg 90%
    02:00 +5°C° 0 mm 1 m/S 727 mmHg 89%
    03:00 +4°C° 0 mm 0 m/S 727 mmHg 88%
    04:00 +5°C° 0 mm 1 m/S 726 mmHg 87%
    05:00 +5°C° 0 mm 1 m/S 726 mmHg 85%
    06:00 +5°C° 0 mm 1 m/S 726 mmHg 83%
    07:00 +6°C° 0 mm 1 m/S 726 mmHg 79%
    08:00 +7°C° 0 mm 1 m/S 726 mmHg 74%
    09:00 +8°C° 0 mm 1 m/S 726 mmHg 70%
    10:00 +8°C° 0 mm 1 m/S 725 mmHg 66%
    11:00 +9°C° 0 mm 1 m/S 725 mmHg 62%
    12:00 +10°C° 0 mm 1 m/S 724 mmHg 59%
    13:00 +10°C° 0 mm 1 m/S 724 mmHg 59%
    14:00 +10°C° 0 mm 1 m/S 724 mmHg 60%
    15:00 +11°C° 0 mm 1 m/S 724 mmHg 60%
    16:00 +10°C° 0 mm 1 m/S 724 mmHg 63%
    17:00 +9°C° 0 mm 1 m/S 724 mmHg 67%
    18:00 +8°C° 0 mm 1 m/S 725 mmHg 70%
    19:00 +8°C° 0 mm 1 m/S 725 mmHg 70%
    20:00 +8°C° 0 mm 1 m/S 725 mmHg 69%
    21:00 +7°C° 0 mm 1 m/S 725 mmHg 69%
    22:00 +6°C° 0 mm 2 m/S 725 mmHg 68%
    23:00 +6°C° 0 mm 2 m/S 725 mmHg 67%

    Morgen, 11 Dezember, Dienstag

    Zeit Temperatur Niederschläge Wind Luftdruck Luftfeuchtigkeit
    00:00 +6°C° 0 mm 2 m/S 724 mmHg 66%
    01:00 +6°C° 0 mm 2 m/S 724 mmHg 64%
    02:00 +6°C° 0 mm 2 m/S 724 mmHg 63%
    03:00 +7°C° 0 mm 3 m/S 724 mmHg 62%
    04:00 +7°C° 0 mm 3 m/S 724 mmHg 61%
    05:00 +5°C° 0 mm 3 m/S 724 mmHg 60%
    06:00 +6°C° 0 mm 2 m/S 724 mmHg 59%
    07:00 +7°C° 0 mm 2 m/S 724 mmHg 57%
    08:00 +8°C° 0 mm 2 m/S 724 mmHg 54%
    09:00 +9°C° 0 mm 2 m/S 724 mmHg 52%
    10:00 +12°C° 0 mm 1 m/S 724 mmHg 49%
    11:00 +13°C° 0 mm 1 m/S 723 mmHg 46%
    12:00 +14°C° 0 mm 1 m/S 723 mmHg 43%
    13:00 +14°C° 0 mm 1 m/S 722 mmHg 44%
    14:00 +14°C° 0 mm 1 m/S 722 mmHg 45%
    15:00 +14°C° 0 mm 1 m/S 722 mmHg 47%
    16:00 +13°C° 0 mm 1 m/S 722 mmHg 49%
    17:00 +12°C° 0 mm 1 m/S 722 mmHg 52%
    18:00 +10°C° 0 mm 2 m/S 722 mmHg 54%
    19:00 +9°C° 0 mm 2 m/S 722 mmHg 54%
    20:00 +9°C° 0 mm 2 m/S 722 mmHg 54%
    21:00 +9°C° 0 mm 2 m/S 722 mmHg 55%
    22:00 +9°C° 0 mm 2 m/S 722 mmHg 55%
    23:00 +9°C° 0 mm 2 m/S 721 mmHg 54%

    übermorgen, 12 Dezember, Mittwoch

    Zeit Temperatur Niederschläge Wind Luftdruck Luftfeuchtigkeit
    00:00 +9°C° 0 mm 2 m/S 721 mmHg 54%
    01:00 +9°C° 0 mm 2 m/S 721 mmHg 55%
    02:00 +9°C° 0 mm 3 m/S 722 mmHg 56%
    03:00 +9°C° 0 mm 3 m/S 722 mmHg 57%
    04:00 +8°C° 0 mm 3 m/S 722 mmHg 59%
    05:00 +8°C° 0 mm 3 m/S 722 mmHg 62%
    06:00 +8°C° 0 mm 3 m/S 723 mmHg 64%
    07:00 +9°C° 0.1 mm 3 m/S 723 mmHg 63%
    08:00 +9°C° 0.1 mm 3 m/S 723 mmHg 63%
    09:00 +9°C° 0.1 mm 3 m/S 724 mmHg 62%
    10:00 +10°C° 0.2 mm 3 m/S 723 mmHg 63%
    11:00 +10°C° 0.2 mm 3 m/S 723 mmHg 64%
    12:00 +10°C° 0.2 mm 3 m/S 723 mmHg 65%
    13:00 +10°C° 0.1 mm 3 m/S 723 mmHg 65%
    14:00 +10°C° 0.1 mm 2 m/S 722 mmHg 65%
    15:00 +10°C° 0.1 mm 2 m/S 722 mmHg 64%
    16:00 +10°C° 0.1 mm 2 m/S 722 mmHg 69%
    17:00 +9°C° 0.1 mm 2 m/S 722 mmHg 73%
    18:00 +9°C° 0.1 mm 1 m/S 722 mmHg 78%
    19:00 +9°C° 0.4 mm 1 m/S 722 mmHg 79%
    20:00 +8°C° 0.4 mm 2 m/S 722 mmHg 79%
    21:00 +8°C° 0.4 mm 2 m/S 722 mmHg 80%
    22:00 +8°C° 0.5 mm 1 m/S 721 mmHg 81%
    23:00 +8°C° 0.5 mm 1 m/S 721 mmHg 82%

    13 Dezember, Donnerstag

    Zeit Temperatur Niederschläge Wind Luftdruck Luftfeuchtigkeit
    00:00 +8°C° 0.5 mm 1 m/S 721 mmHg 83%
    01:00 +8°C° 0.9 mm 1 m/S 721 mmHg 84%
    02:00 +8°C° 0.9 mm 1 m/S 721 mmHg 85%
    03:00 +7°C° 0.9 mm 1 m/S 721 mmHg 86%
    04:00 +7°C° 0.7 mm 1 m/S 721 mmHg 86%
    05:00 +7°C° 0.7 mm 1 m/S 721 mmHg 87%
    06:00 +6°C° 0.7 mm 2 m/S 721 mmHg 87%
    07:00 +7°C° 0.1 mm 2 m/S 722 mmHg 86%
    08:00 +7°C° 0.1 mm 3 m/S 723 mmHg 85%
    09:00 +7°C° 0.1 mm 3 m/S 723 mmHg 84%
    10:00 +7°C° 0 mm 4 m/S 723 mmHg 80%
    11:00 +7°C° 0 mm 4 m/S 724 mmHg 76%
    12:00 +8°C° 0 mm 5 m/S 724 mmHg 72%
    13:00 +8°C° 0 mm 5 m/S 724 mmHg 70%
    14:00 +8°C° 0 mm 5 m/S 724 mmHg 67%
    15:00 +8°C° 0 mm 5 m/S 725 mmHg 65%
    16:00 +7°C° 0 mm 4 m/S 725 mmHg 67%
    17:00 +6°C° 0 mm 4 m/S 726 mmHg 69%
    18:00 +5°C° 0 mm 4 m/S 726 mmHg 71%
    19:00 +5°C° 0 mm 3 m/S 727 mmHg 70%
    20:00 +5°C° 0 mm 3 m/S 727 mmHg 70%
    21:00 +5°C° 0 mm 3 m/S 727 mmHg 69%
    22:00 +5°C° 0.1 mm 3 m/S 727 mmHg 70%
    23:00 +6°C° 0.1 mm 2 m/S 728 mmHg 70%

    14 Dezember, Freitag

    Zeit Temperatur Niederschläge Wind Luftdruck Luftfeuchtigkeit
    00:00 +6°C° 0.1 mm 2 m/S 728 mmHg 71%
    01:00 +5°C° 0.2 mm 2 m/S 728 mmHg 72%
    02:00 +6°C° 0.2 mm 1 m/S 728 mmHg 74%
    03:00 +6°C° 0.2 mm 1 m/S 729 mmHg 75%
    04:00 +6°C° 0.2 mm 1 m/S 729 mmHg 76%
    05:00 +5°C° 0.2 mm 1 m/S 729 mmHg 77%
    06:00 +5°C° 0.2 mm 1 m/S 729 mmHg 77%
    07:00 +5°C° 0 mm 1 m/S 730 mmHg 75%
    08:00 +6°C° 0 mm 1 m/S 730 mmHg 72%
    09:00 +6°C° 0 mm 1 m/S 730 mmHg 69%
    10:00 +5°C° 0 mm 2 m/S 730 mmHg 65%
    11:00 +6°C° 0 mm 2 m/S 730 mmHg 61%
    12:00 +6°C° 0 mm 2 m/S 730 mmHg 57%
    13:00 +6°C° 0.1 mm 2 m/S 730 mmHg 56%
    14:00 +6°C° 0.1 mm 2 m/S 730 mmHg 56%
    15:00 +6°C° 0.1 mm 2 m/S 730 mmHg 56%
    16:00 +5°C° 0 mm 2 m/S 731 mmHg 59%
    17:00 +4°C° 0 mm 2 m/S 731 mmHg 61%
    18:00 +3°C° 0 mm 2 m/S 732 mmHg 64%
    19:00 +3°C° 0 mm 2 m/S 732 mmHg 64%
    20:00 +3°C° 0 mm 2 m/S 732 mmHg 64%
    21:00 +3°C° 0 mm 2 m/S 732 mmHg 64%
    22:00 +3°C° 0 mm 2 m/S 732 mmHg 63%
    23:00 +2°C° 0 mm 2 m/S 732 mmHg 63%

    15 Dezember, Samstag

    Zeit Temperatur Niederschläge Wind Luftdruck Luftfeuchtigkeit
    00:00 +2°C° 0 mm 2 m/S 732 mmHg 62%
    01:00 +2°C° 0 mm 2 m/S 732 mmHg 62%
    02:00 +2°C° 0 mm 2 m/S 732 mmHg 62%
    03:00 +2°C° 0 mm 2 m/S 732 mmHg 61%
    04:00 +2°C° 0 mm 2 m/S 732 mmHg 62%
    05:00 +2°C° 0 mm 2 m/S 732 mmHg 62%
    06:00 +2°C° 0 mm 2 m/S 732 mmHg 62%
    07:00 +2°C° 0 mm 2 m/S 732 mmHg 61%
    08:00 +3°C° 0 mm 2 m/S 733 mmHg 59%
    09:00 +4°C° 0 mm 2 m/S 733 mmHg 58%
    10:00 +5°C° 0 mm 2 m/S 733 mmHg 56%
    11:00 +6°C° 0 mm 2 m/S 732 mmHg 54%
    12:00 +7°C° 0 mm 2 m/S 732 mmHg 52%
    13:00 +7°C° 0 mm 2 m/S 732 mmHg 53%
    14:00 +7°C° 0 mm 2 m/S 732 mmHg 53%
    15:00 +7°C° 0 mm 2 m/S 732 mmHg 54%
    16:00 +6°C° 0 mm 2 m/S 732 mmHg 57%
    17:00 +5°C° 0 mm 2 m/S 732 mmHg 59%
    18:00 +4°C° 0 mm 2 m/S 733 mmHg 62%
    19:00 +5°C° 0 mm 1 m/S 733 mmHg 62%
    20:00 +5°C° 0 mm 1 m/S 733 mmHg 61%
    21:00 +5°C° 0 mm 1 m/S 733 mmHg 61%
    22:00 +5°C° 0 mm 1 m/S 733 mmHg 60%
    23:00 +4°C° 0 mm 1 m/S 733 mmHg 60%
    Mehr zeigen